• In Russia
  • List of Countries
  • For 7 days
  • Water Temperature
  • Weather Map
  • Weather Widgets
  • user-avatar
    Login

    Hourly Weather Klagenfurt

    Today, 25 May, Monday

    Time Temperature Precipitation Wind Pressure Humidity
    00:00 +8°C° 0 mm 1 mps 697 mmHg 75%
    01:00 +8°C° 0 mm 1 mps 697 mmHg 78%
    02:00 +7°C° 0 mm 1 mps 697 mmHg 78%
    03:00 +7°C° 0 mm 1 mps 697 mmHg 79%
    04:00 +7°C° 0 mm 1 mps 697 mmHg 79%
    05:00 +9°C° 0 mm 1 mps 697 mmHg 74%
    06:00 +10°C° 0 mm 0 mps 697 mmHg 69%
    07:00 +11°C° 0 mm 0 mps 698 mmHg 64%
    08:00 +13°C° 0.1 mm 0 mps 698 mmHg 60%
    09:00 +16°C° 0.1 mm 1 mps 698 mmHg 56%
    10:00 +18°C° 0.1 mm 1 mps 699 mmHg 52%
    11:00 +18°C° 0.6 mm 1 mps 698 mmHg 56%
    12:00 +18°C° 0.6 mm 1 mps 698 mmHg 61%
    13:00 +18°C° 0.6 mm 1 mps 697 mmHg 65%
    14:00 +18°C° 0.7 mm 1 mps 697 mmHg 64%
    15:00 +18°C° 0.7 mm 1 mps 696 mmHg 64%
    16:00 +18°C° 0.7 mm 1 mps 696 mmHg 63%
    17:00 +15°C° 0.4 mm 1 mps 696 mmHg 68%
    18:00 +14°C° 0.4 mm 1 mps 696 mmHg 74%
    19:00 +12°C° 0.4 mm 1 mps 696 mmHg 79%
    20:00 +11°C° 0.1 mm 1 mps 696 mmHg 81%
    21:00 +10°C° 0.1 mm 1 mps 696 mmHg 83%
    22:00 +8°C° 0.1 mm 1 mps 696 mmHg 85%
    23:00 +8°C° 0 mm 1 mps 697 mmHg 88%

    Tomorrow, 26 May, Tuesday

    Time Temperature Precipitation Wind Pressure Humidity
    00:00 +7°C° 0 mm 1 mps 697 mmHg 90%
    01:00 +6°C° 0 mm 1 mps 697 mmHg 93%
    02:00 +6°C° 0 mm 1 mps 697 mmHg 93%
    03:00 +6°C° 0 mm 1 mps 697 mmHg 94%
    04:00 +6°C° 0 mm 1 mps 696 mmHg 94%
    05:00 +7°C° 0 mm 1 mps 697 mmHg 89%
    06:00 +9°C° 0 mm 1 mps 697 mmHg 85%
    07:00 +10°C° 0 mm 1 mps 698 mmHg 80%
    08:00 +12°C° 0 mm 1 mps 698 mmHg 68%
    09:00 +14°C° 0 mm 2 mps 699 mmHg 57%
    10:00 +16°C° 0 mm 2 mps 699 mmHg 45%
    11:00 +16°C° 0.1 mm 2 mps 699 mmHg 44%
    12:00 +17°C° 0.1 mm 2 mps 699 mmHg 43%
    13:00 +17°C° 0.1 mm 3 mps 698 mmHg 42%
    14:00 +17°C° 0.2 mm 2 mps 698 mmHg 47%
    15:00 +16°C° 0.2 mm 2 mps 698 mmHg 51%
    16:00 +15°C° 0.2 mm 2 mps 698 mmHg 55%
    17:00 +14°C° 0.1 mm 2 mps 697 mmHg 62%
    18:00 +13°C° 0.1 mm 2 mps 697 mmHg 69%
    19:00 +11°C° 0.1 mm 1 mps 697 mmHg 75%
    20:00 +10°C° 0 mm 1 mps 698 mmHg 77%
    21:00 +9°C° 0 mm 1 mps 698 mmHg 79%
    22:00 +7°C° 0 mm 1 mps 698 mmHg 81%
    23:00 +7°C° 0 mm 1 mps 698 mmHg 82%

    Day after tomorrow, 27 May, Wednesday

    Time Temperature Precipitation Wind Pressure Humidity
    00:00 +6°C° 0 mm 1 mps 698 mmHg 84%
    01:00 +6°C° 0 mm 1 mps 698 mmHg 85%
    02:00 +6°C° 0 mm 1 mps 698 mmHg 85%
    03:00 +5°C° 0 mm 1 mps 697 mmHg 85%
    04:00 +5°C° 0 mm 1 mps 697 mmHg 86%
    05:00 +7°C° 0 mm 1 mps 698 mmHg 79%
    06:00 +9°C° 0 mm 1 mps 698 mmHg 73%
    07:00 +11°C° 0 mm 1 mps 698 mmHg 66%
    08:00 +13°C° 0 mm 1 mps 699 mmHg 57%
    09:00 +16°C° 0 mm 1 mps 699 mmHg 48%
    10:00 +19°C° 0 mm 1 mps 699 mmHg 39%
    11:00 +20°C° 0 mm 1 mps 699 mmHg 38%
    12:00 +21°C° 0 mm 1 mps 699 mmHg 36%
    13:00 +22°C° 0 mm 1 mps 699 mmHg 34%
    14:00 +21°C° 0 mm 1 mps 698 mmHg 36%
    15:00 +21°C° 0 mm 1 mps 698 mmHg 38%
    16:00 +20°C° 0 mm 1 mps 697 mmHg 39%
    17:00 +19°C° 0 mm 1 mps 697 mmHg 49%
    18:00 +15°C° 0 mm 0 mps 697 mmHg 59%
    19:00 +13°C° 0 mm 0 mps 697 mmHg 69%
    20:00 +12°C° 0 mm 0 mps 697 mmHg 71%
    21:00 +10°C° 0 mm 0 mps 697 mmHg 73%
    22:00 +9°C° 0 mm 0 mps 697 mmHg 74%
    23:00 +10°C° 0 mm 1 mps 697 mmHg 76%

    28 May, Thursday

    Time Temperature Precipitation Wind Pressure Humidity
    00:00 +10°C° 0 mm 1 mps 696 mmHg 78%
    01:00 +9°C° 0 mm 1 mps 696 mmHg 80%
    02:00 +9°C° 0 mm 1 mps 696 mmHg 81%
    03:00 +9°C° 0 mm 1 mps 696 mmHg 81%
    04:00 +8°C° 0 mm 1 mps 695 mmHg 82%
    05:00 +10°C° 0 mm 1 mps 695 mmHg 77%
    06:00 +11°C° 0 mm 0 mps 696 mmHg 72%
    07:00 +12°C° 0 mm 0 mps 696 mmHg 67%
    08:00 +15°C° 0 mm 0 mps 696 mmHg 59%
    09:00 +19°C° 0 mm 1 mps 696 mmHg 51%
    10:00 +21°C° 0 mm 1 mps 696 mmHg 43%
    11:00 +21°C° 0.2 mm 1 mps 696 mmHg 46%
    12:00 +21°C° 0.2 mm 1 mps 695 mmHg 49%
    13:00 +20°C° 0.2 mm 1 mps 695 mmHg 52%
    14:00 +20°C° 0.5 mm 1 mps 694 mmHg 57%
    15:00 +19°C° 0.5 mm 1 mps 694 mmHg 63%
    16:00 +19°C° 0.5 mm 1 mps 693 mmHg 68%
    17:00 +16°C° 0.7 mm 1 mps 693 mmHg 75%
    18:00 +15°C° 0.7 mm 1 mps 693 mmHg 82%
    19:00 +12°C° 0.7 mm 0 mps 693 mmHg 88%
    20:00 +12°C° 0.6 mm 0 mps 693 mmHg 90%
    21:00 +12°C° 0.6 mm 1 mps 693 mmHg 91%
    22:00 +11°C° 0.6 mm 1 mps 693 mmHg 92%
    23:00 +11°C° 0.4 mm 1 mps 693 mmHg 94%

    29 May, Friday

    Time Temperature Precipitation Wind Pressure Humidity
    00:00 +10°C° 0.4 mm 1 mps 693 mmHg 95%
    01:00 +10°C° 0.4 mm 1 mps 693 mmHg 96%
    02:00 +9°C° 0.2 mm 1 mps 693 mmHg 96%
    03:00 +9°C° 0.2 mm 1 mps 692 mmHg 96%
    04:00 +9°C° 0.2 mm 1 mps 692 mmHg 97%
    05:00 +9°C° 0.1 mm 1 mps 692 mmHg 96%
    06:00 +9°C° 0.1 mm 1 mps 691 mmHg 95%
    07:00 +8°C° 0.1 mm 0 mps 691 mmHg 94%
    08:00 +10°C° 0.1 mm 1 mps 691 mmHg 90%
    09:00 +10°C° 0.1 mm 1 mps 691 mmHg 86%
    10:00 +11°C° 0.1 mm 1 mps 691 mmHg 82%
    11:00 +12°C° 0 mm 1 mps 690 mmHg 77%
    12:00 +13°C° 0 mm 1 mps 690 mmHg 71%
    13:00 +14°C° 0 mm 2 mps 690 mmHg 66%
    14:00 +14°C° 0.1 mm 2 mps 690 mmHg 66%
    15:00 +15°C° 0.1 mm 2 mps 689 mmHg 66%
    16:00 +15°C° 0.1 mm 1 mps 689 mmHg 65%
    17:00 +14°C° 0.2 mm 1 mps 689 mmHg 73%
    18:00 +13°C° 0.2 mm 1 mps 689 mmHg 80%
    19:00 +12°C° 0.2 mm 1 mps 689 mmHg 88%
    20:00 +11°C° 1.1 mm 1 mps 689 mmHg 91%
    21:00 +11°C° 1.1 mm 1 mps 689 mmHg 94%
    22:00 +10°C° 1.1 mm 1 mps 689 mmHg 97%
    23:00 +10°C° 3 mm 1 mps 689 mmHg 97%

    30 May, Saturday

    Time Temperature Precipitation Wind Pressure Humidity
    00:00 +9°C° 3 mm 1 mps 689 mmHg 98%
    01:00 +9°C° 3 mm 1 mps 688 mmHg 98%
    02:00 +8°C° 2.6 mm 1 mps 688 mmHg 98%
    03:00 +8°C° 2.6 mm 1 mps 688 mmHg 97%
    04:00 +7°C° 2.6 mm 1 mps 688 mmHg 97%
    05:00 +7°C° 0.6 mm 1 mps 689 mmHg 96%
    06:00 +8°C° 0.6 mm 1 mps 689 mmHg 95%
    07:00 +8°C° 0.6 mm 1 mps 689 mmHg 93%
    08:00 +9°C° 0.3 mm 1 mps 690 mmHg 87%
    09:00 +10°C° 0.3 mm 1 mps 690 mmHg 80%
    10:00 +11°C° 0.3 mm 1 mps 690 mmHg 74%
    11:00 +11°C° 0.8 mm 1 mps 690 mmHg 75%
    12:00 +12°C° 0.8 mm 1 mps 690 mmHg 75%
    13:00 +12°C° 0.8 mm 1 mps 690 mmHg 76%
    14:00 +12°C° 0.6 mm 1 mps 690 mmHg 73%
    15:00 +13°C° 0.6 mm 1 mps 690 mmHg 70%
    16:00 +13°C° 0.6 mm 1 mps 690 mmHg 67%
    17:00 +12°C° 0.1 mm 1 mps 690 mmHg 72%
    18:00 +11°C° 0.1 mm 1 mps 690 mmHg 76%
    19:00 +10°C° 0.1 mm 1 mps 690 mmHg 81%
    20:00 +9°C° 0 mm 1 mps 690 mmHg 84%
    21:00 +7°C° 0 mm 1 mps 690 mmHg 88%
    22:00 +6°C° 0 mm 1 mps 690 mmHg 91%
    23:00 +5°C° 0 mm 1 mps 690 mmHg 91%
    Show more